Find Starlink 31366

NORAD ID: 59403 Int'l Des: 2024-064 Owner: SPXS Country: US Constellation: starlink operational
LEOCIRCULAR

現在のビュー

3D地球を読み込み中...

About Starlink 31366

Starlink 31366 (NORAD 59403) is a starlink constellation satellite (v2 mini) launched Apr 5, 2024 by SPXS of US. It operates in LEO, CIRCULAR orbit with a mass of 730.00 kg.

Starlink 31366について

説明を読み込み中...

次回通過

Passes for default location (London). Set your location on the main map for personalized predictions.

高度履歴

Loading altitude history...

軌道要素

1 59403U 24064F 26173.49141570 .00000889 00000-0 41828-4 0 9999
2 59403 43.0029 184.3273 0000948 272.0371 88.0372 15.27580601125250
Epoch: Jun 22, 2026 • Age: 22 hours

現在のステータス

高度 486.8 km
速度 7.63 km/s
衛星直下点 42.92°N, 147.82°W
打ち上げ日 Apr 5, 2024
運用期間 2.2 years
タイプ internet

技術仕様

分類 Payload
質量 730.00 kg
乾燥質量 700.00 kg
総質量 730.00 kg
長さ 0.30 m
直径 4.10 m
スパン 29.00 m
形状 Box + pan
製造者 SPXS
バスタイプ Starlink V2M
フェーズステータス In Orbit
所有者/国 SPXS/US

Most Searched